Live-Position
3D-Globus wird geladen...
Über Starlink 4255
Group: 3 satellites
Beschreibung wird geladen...
Nächste Überflüge
Passes for default location (London). Set your location on the main map for personalized predictions.
Höhenverlauf
Loading altitude history...
No altitude history available
Zweizeiliger Elementsatz
1 53003U 22076T 26127.88224909 .00001378 00000-0 10467-3 0 9998
2 53003 53.2149 188.3940 0001208 88.0400 272.0730 15.08841203211783
Epoch: 7. Mai 2026 •
Age: 7 hours
Aktueller Status
Höhe 549.5 km
Geschwindigkeit 7.59 km/s
Subsatellitenpunkt -30.14°S,
99.11°E
Startdatum 7. Juli 2022
Alter 3.8 years
Typ internet
Startgruppe
Falcon 9 •
Group 4-21 •
49 satellites
Starlink 4260
52986
Starlink 4259 52987
Starlink 4291 52988
Starlink 4293 52989
Starlink 4286 52990
Starlink 4285 52991
Starlink 4269 52992
Starlink 4256 52994
Starlink 4296 52995
Starlink 4295 52996
Starlink 4254 52998
Starlink 4217 52999
Starlink 4194 53000
Starlink 4190 53001
Starlink 4121 53002
Starlink 4253 53004
Starlink 4288 53005
Starlink 4290 53006
Starlink 4215 53007
Starlink 4275 53008
...and 28 more
Technische Details
Klassifizierung Payload
Masse 297.00 kg
Trockenmasse 275.00 kg
Gesamtmasse 297.00 kg
Länge 0.20 m
Durchmesser 2.80 m
Spannweite 9.00 m
Form Box + pan
Hersteller SPXS
Bus-Typ Starlink
Phasenstatus In Orbit
Besitzer/Staat SPXS/US
Most Searched
Loading...